Petersburg, AK

5:59 PM AKDT on June 28, 2017 (GMT -0800)
Johnson Petersburg

Weather History for PAPG - September, 2013

Change the Weather History Date:

Tuesday, September 10, 2013

  Actual Average Record
Temperature  
Mean Temperature 54 °F -  
Max Temperature 60 °F 53 °F 69 °F (1989)
Min Temperature 48 °F 43 °F 35 °F (2004)
Degree Days  
Heating Degree Days 11    
Growing Degree Days 4 (Base 50)    
Moisture  
Dew Point 48 °F    
Average Humidity 81    
Maximum Humidity 93    
Minimum Humidity 67    
Precipitation  
Precipitation 0.00 in - - ()
Sea Level Pressure  
Sea Level Pressure 30.08 in    
Wind  
Wind Speed 1 mph (WSW)    
Max Wind Speed 8 mph    
Max Gust Speed -    
Visibility 10 miles    
Events Fog , Rain    
Averages and records for this station are not official NWS values.
T = Trace of Precipitation, MM = Missing Value Source: NWS Daily Summary

Daily Weather History Graph

Daily Weather History Graph

Search for Another Location

Airport or City:

Trip Planner

Search our weather history database for the weather conditions in past years. The results will help you decide how hot, cold, wet, or windy it might be!

Date:

Astronomy

Sep. 10, 2013 Rise Set
Actual Time 6:13 AM AKDT 7:22 PM AKDT
Civil Twilight 5:34 AM AKDT 8:01 PM AKDT
Nautical Twilight 4:46 AM AKDT 8:48 PM AKDT
Astronomical Twilight 3:53 AM AKDT 9:41 PM AKDT
Moon 12:58 PM AKDT (9/10) 9:18 PM AKDT (9/10)
Length of Visible Light 14h 26m
Length of Day
13h 08m
Waxing Crescent, 30% of the Moon is Illuminated
Sep 10
Waxing Crescent
Sep 12
First Quarter
Sep 19
Full
Sep 26
Last Quarter
Oct 4
New

Hourly Weather History & Observations

Time (AKDT) Temp. Dew Point Humidity Pressure Visibility Wind Dir Wind Speed Gust Speed Precip Events Conditions
12:56 AM 50.0 °F 46.4 °F 87% 30.11 in 9.0 mi Calm Calm - N/A   Mostly Cloudy
1:16 AM 50.0 °F 46.4 °F 87% 30.10 in 8.0 mi Calm Calm - N/A   Overcast
1:56 AM 50.0 °F 46.4 °F 87% 30.10 in 10.0 mi West 3.5 mph - N/A   Mostly Cloudy
2:16 AM 51.8 °F 48.2 °F 88% 30.10 in 10.0 mi Calm Calm - N/A   Overcast
2:36 AM 51.8 °F 48.2 °F 88% 30.10 in 10.0 mi Calm Calm - N/A   Overcast
3:36 AM 48.2 °F 46.4 °F 93% 30.10 in 10.0 mi NE 3.5 mph - N/A   Overcast
3:56 AM 48.2 °F 46.4 °F 93% 30.09 in 10.0 mi East 3.5 mph - N/A   Overcast
4:16 AM 48.2 °F 46.4 °F 93% 30.09 in 10.0 mi Calm Calm - N/A   Overcast
4:36 AM 48.2 °F 46.4 °F 93% 30.09 in 10.0 mi Calm Calm - N/A   Overcast
4:56 AM 50.0 °F 46.4 °F 87% 30.10 in 10.0 mi Calm Calm - N/A   Overcast
5:36 AM 50.0 °F 44.6 °F 82% 30.09 in 10.0 mi Calm Calm - N/A   Overcast
5:56 AM 50.0 °F 46.4 °F 87% 30.09 in 10.0 mi Calm Calm - N/A   Overcast
6:16 AM 50.0 °F 46.4 °F 87% 30.09 in 10.0 mi Calm Calm - N/A   Overcast
6:36 AM 48.2 °F 46.4 °F 93% 30.08 in 10.0 mi Calm Calm - N/A   Overcast
7:36 AM 50.0 °F 46.4 °F 87% 30.08 in 10.0 mi Calm Calm - N/A   Overcast
7:56 AM 51.8 °F 46.4 °F 82% 30.08 in 10.0 mi Calm Calm - N/A   Mostly Cloudy
8:16 AM 51.8 °F 46.4 °F 82% 30.08 in 10.0 mi Calm Calm - N/A   Mostly Cloudy
8:36 AM 51.8 °F 46.4 °F 82% 30.08 in 10.0 mi Calm Calm - N/A   Mostly Cloudy
8:56 AM 51.8 °F 48.2 °F 88% 30.08 in 10.0 mi East 4.6 mph - N/A   Mostly Cloudy
9:16 AM 51.8 °F 46.4 °F 82% 30.10 in 10.0 mi Calm Calm - N/A   Mostly Cloudy
9:56 AM 51.8 °F 48.2 °F 88% 30.08 in 10.0 mi ENE 3.5 mph - N/A   Mostly Cloudy
10:16 AM 53.6 °F 48.2 °F 82% 30.09 in 10.0 mi Calm Calm - N/A   Mostly Cloudy
10:36 AM 53.6 °F 48.2 °F 82% 30.09 in 10.0 mi NE 3.5 mph - N/A   Mostly Cloudy
10:56 AM 53.6 °F 48.2 °F 82% 30.09 in 10.0 mi Calm Calm - N/A   Mostly Cloudy
11:36 AM 55.4 °F 46.4 °F 72% 30.08 in 10.0 mi Calm Calm - N/A   Mostly Cloudy
11:56 AM 55.4 °F 48.2 °F 77% 30.09 in 10.0 mi Calm Calm - N/A   Overcast
12:56 PM 55.4 °F 46.4 °F 72% 30.10 in 10.0 mi Calm Calm - N/A   Overcast
1:16 PM 57.2 °F 48.2 °F 72% 30.09 in 10.0 mi ENE 3.5 mph - N/A   Overcast
1:36 PM 55.4 °F 46.4 °F 72% 30.09 in 10.0 mi ENE 4.6 mph - N/A   Overcast
1:55 PM 57.2 °F 46.4 °F 67% 30.06 in 10.0 mi Calm Calm - N/A   Mostly Cloudy
3:16 PM 55.4 °F 46.4 °F 72% 30.06 in 10.0 mi Calm Calm - N/A   Mostly Cloudy
4:16 PM 57.2 °F 48.2 °F 72% 30.05 in 10.0 mi Calm Calm - N/A   Overcast
4:23 PM 57.2 °F 48.2 °F 72% 30.05 in 10.0 mi Calm Calm - N/A   Overcast
4:36 PM 57.2 °F 48.2 °F 72% 30.05 in 10.0 mi SSE 3.5 mph - N/A   Overcast
4:56 PM 59.0 °F 48.2 °F 67% 30.05 in 10.0 mi Calm Calm - N/A   Overcast
5:16 PM 57.2 °F 48.2 °F 72% 30.06 in 10.0 mi East 3.5 mph - N/A   Overcast
5:36 PM 55.4 °F 46.4 °F 72% 30.07 in 10.0 mi NW 4.6 mph - N/A   Overcast
5:56 PM 57.2 °F 48.2 °F 72% 30.08 in 7.0 mi Calm Calm - N/A   Overcast
6:16 PM 59.0 °F 48.2 °F 67% 30.08 in 7.0 mi West 4.6 mph - N/A   Overcast
6:56 PM 57.2 °F 51.8 °F 82% 30.07 in 10.0 mi SSW 5.8 mph - N/A   Mostly Cloudy
7:14 PM 48.2 °F 46.4 °F 93% 29.88 in 10.0 mi SW 3.5 mph - N/A Fog , Rain Light Rain
7:36 PM 57.2 °F 50.0 °F 77% 30.07 in 10.0 mi Calm Calm - N/A   Mostly Cloudy
8:16 PM 57.2 °F 51.8 °F 82% 30.08 in 10.0 mi West 4.6 mph - N/A   Overcast
8:36 PM 57.2 °F 51.8 °F 82% 30.08 in 10.0 mi Calm Calm - N/A   Overcast
8:56 PM 57.2 °F 51.8 °F 82% 30.09 in 10.0 mi ENE 3.5 mph - N/A   Overcast
9:16 PM 60.8 °F 50.0 °F 68% 30.08 in 10.0 mi West 5.8 mph - N/A   Overcast
9:36 PM 57.2 °F 51.8 °F 82% 30.09 in 10.0 mi SW 8.1 mph - N/A   Overcast
9:56 PM 59.0 °F 50.0 °F 72% 30.09 in 10.0 mi WSW 6.9 mph - N/A   Overcast
10:16 PM 57.2 °F 51.8 °F 82% 30.09 in 10.0 mi WSW 4.6 mph - N/A   Overcast
10:36 PM 59.0 °F 51.8 °F 77% 30.10 in 10.0 mi WSW 5.8 mph - N/A   Overcast
11:36 PM 59.0 °F 51.8 °F 77% 30.09 in 10.0 mi Calm Calm - N/A   Overcast